Location: Buckeye Ditch
(40.9104°N, 122.9517°W)
Time: 13:14:11
(UTC+00:00)

Transit 2A Rocket - Pass Details

Date: 22 May 2025
Orbit: 590 x 896 km, 66.7° (Epoch: 15 June)

Event Time Altitude Azimuth Distance (km) Brightness Sun altitude
Rises 05:06:59 0° 311° (NW) 2,981 9.9 -15.6°
Reaches altitude 10° 05:09:58 10° 290° (WNW) 2,120 8.3 -16.0°
Maximum altitude 05:12:56 16° 252° (WSW) 1,774 7.2 -16.4°
Drops below altitude 10° 05:16:02 10° 214° (SW) 2,232 7.3 -16.8°
Enters shadow 05:18:01 - 200° (SSW) 2,796 7.6 -17.0°
